Simultaneous Nadir Overpasses (SNOs) Predictions

Prediction of SNOs between NOAA-19 and TERRA Satellite Orbit:

Table of predicted SNOs for the next 14.0 days since TLE Epoch: 1/4/2014
Index Date (NOAA-19) Time (NOAA-19) Lat,Lon (NOAA-19) SZA (NOAA-19 ) Date (TERRA) Time (TERRA) Lat,Lon (TERRA) SZA (TERRA ) Distance(km) Time Diff (sec)
1 01/04/2014 15:41:39 -70.19, 125.05 87.24 01/04/2014 15:42:50 -70.18, 125.22 87.25 6.55 71
2 01/04/2014 16:32:41 69.97, -67.38 92.54 01/04/2014 16:32:19 69.97, -67.43 92.54 1.97 22
3 01/06/2014 20:25:52 -70.59, 53.40 87.09 01/06/2014 20:27:02 -70.45, 54.55 87.24 45.48 70
4 01/06/2014 21:16:48 70.04,-138.49 92.35 01/06/2014 21:16:35 70.02,-138.43 92.33 3.06 13
5 01/06/2014 22:07:27 -69.07, 30.21 88.63 01/06/2014 22:06:20 -69.08, 27.94 88.61 90.44 67
6 01/09/2014 01:10:04 -70.95, -18.21 87.01 01/09/2014 01:11:11 -70.87, -15.89 87.11 84.68 67
7 01/09/2014 02:00:54 70.07, 150.47 92.09 01/09/2014 02:00:51 70.05, 150.55 92.08 3.21 3
8 01/09/2014 02:51:39 -69.44, -41.31 88.55 01/09/2014 02:50:29 -69.51, -42.58 88.48 49.92 70
9 01/11/2014 06:44:59 70.05, 79.49 91.75 01/11/2014 06:45:07 70.07, 79.50 91.77 2.28 8
10 01/11/2014 07:35:52 -69.86,-112.95 88.45 01/11/2014 07:34:38 -69.91,-113.10 88.40 7.90 74
11 01/13/2014 11:29:05 70.09, 8.42 91.44 01/13/2014 11:29:23 70.07, 8.42 91.40 3.20 18
12 01/13/2014 12:19:59 -69.97, 175.87 88.70 01/13/2014 12:18:53 -69.96, 175.91 88.71 1.88 66
13 01/15/2014 16:13:10 70.10, -62.59
